QPF
0.00 0.00 0.00 0.00 0.00 0.00 0.00 0.00 0.00 0.00 0.00 0.00 0.00 0.00 0.00 0.00 0.00 0.00 0.01 0.00 0.00 0.00 0.00 0.00 0.00 0.00 0.00 0.00 0.00 0.00 0.00 0.01 0.01 0.01 0.01 0.01 0.01 0.01 0.02 0.02 0.02 0.01 0.00
0.00 0.00 0.00 0.00 0.00 0.00 0.00 0.00 0.00 0.00 0.00 0.00 0.00 0.00 0.00 0.00 0.00 0.00 0.01 0.01 0.00 0.00 0.00 0.00 0.00 0.00 0.00 0.00 0.00 0.00 0.00 0.01 0.02 0.02 0.02 0.04 0.05 0.06 0.07 0.06 0.05 0.02 0.00
0.00 0.00 0.00 0.00 0.00 0.00 0.00 0.00 0.00 0.00 0.00 0.00 0.00 0.00 0.00 0.00 0.00 0.00 0.00 0.01 0.01 0.00 0.00 0.00 0.00 0.00 0.00 0.00 0.01 0.01 0.01 0.01 0.01 0.03 0.04 0.07 0.09 0.10 0.10 0.06 0.04 0.01 0.00
0.00 0.00 0.00 0.00 0.00 0.00 0.00 0.00 0.00 0.00 0.00 0.00 0.00 0.00 0.00 0.00 0.00 0.00 0.00 0.00 0.01 0.01 0.01 0.00 0.00 0.00 0.00 0.00 0.01 0.01 0.01 0.01 0.01 0.02 0.04 0.05 0.06 0.06 0.05 0.03 0.01 0.02 0.01
0.00 0.01 0.01 0.01 0.00 0.00 0.00 0.00 0.00 0.00 0.00 0.00 0.00 0.00 0.00 0.00 0.00 0.00 0.00 0.00 0.00 0.01 0.02 0.00 0.00 0.00 0.00 0.00 0.01 0.01 0.00 0.01 0.01 0.01 0.02 0.02 0.02 0.02 0.01 0.01 0.01 0.02 0.02
0.01 0.03 0.03 0.01 0.01 0.01 0.01 0.01 0.00 0.01 0.01 0.00 0.00 0.00 0.00 0.00 0.00 0.00 0.00 0.00 0.00 0.00 0.01 0.01 0.02 0.02 0.00 0.00 0.00 0.00 0.00 0.00 0.00 0.00 0.01 0.01 0.01 0.00 0.00 0.00 0.01 0.02 0.03
0.03 0.06 0.06 0.04 0.04 0.04 0.03 0.02 0.04 0.05 0.04 0.01 0.02 0.02 0.01 0.00 0.00 0.00 0.00 0.00 0.00 0.00 0.00 0.00 0.02 0.03 0.01 0.00 0.00 0.00 0.00 0.01 0.00 0.00 0.00 0.00 0.00 0.00 0.00 0.00 0.01 0.02 0.02
0.06 0.05 0.07 0.08 0.07 0.07 0.08 0.08 0.13 0.16 0.11 0.05 0.07 0.11 0.09 0.06 0.01 0.00 0.00 0.00 0.00 0.00 0.00 0.00 0.00 0.00 0.01 0.01 0.00 0.00 0.00 0.01 0.01 0.01 0.00 0.00 0.00 0.00 0.00 0.00 0.00 0.01 0.01
0.11 0.10 0.11 0.12 0.09 0.09 0.11 0.14 0.18 0.20 0.18 0.11 0.07 0.15 0.15 0.16 0.12 0.03 0.00 0.00 0.00 0.00 0.00 0.00 0.01 0.00 0.00 0.01 0.00 0.00 0.00 0.00 0.01 0.00 0.00 0.00 0.01 0.00 0.00 0.00 0.01 0.01 0.01
0.12 0.13 0.12 0.11 0.11 0.12 0.14 0.13 0.09 0.13 0.15 0.11 0.09 0.09 0.08 0.11 0.15 0.11 0.04 0.01 0.01 0.00 0.00 0.00 0.00 0.00 0.00 0.00 0.00 0.00 0.00 0.00 0.00 0.00 0.00 0.01 0.01 0.00 0.00 0.00 0.00 0.00 0.01
0.14 0.16 0.15 0.12 0.11 0.12 0.12 0.11 0.11 0.13 0.13 0.12 0.11 0.10 0.07 0.09 0.07 0.14 0.14 0.06 0.01 0.01 0.00 0.00 0.00 0.00 0.00 0.00 0.00 0.00 0.00 0.00 0.00 0.00 0.00 0.00 0.00 0.00 0.00 0.00 0.00 0.00 0.01
0.18 0.21 0.20 0.16 0.15 0.15 0.14 0.14 0.12 0.11 0.12 0.13 0.10 0.07 0.06 0.05 0.07 0.13 0.15 0.15 0.08 0.01 0.01 0.00 0.00 0.00 0.00 0.00 0.00 0.00 0.00 0.00 0.00 0.00 0.00 0.00 0.00 0.00 0.00 0.00 0.00 0.00 0.00
0.21 0.20 0.18 0.17 0.15 0.13 0.11 0.10 0.08 0.07 0.07 0.07 0.07 0.06 0.07 0.07 0.10 0.12 0.14 0.16 0.18 0.07 0.02 0.01 0.00 0.00 0.00 0.00 0.00 0.00 0.00 0.00 0.00 0.00 0.00 0.00 0.00 0.00 0.00 0.00 0.00 0.00 0.00
0.23 0.18 0.15 0.13 0.12 0.10 0.06 0.04 0.04 0.03 0.03 0.03 0.03 0.05 0.05 0.06 0.08 0.09 0.11 0.16 0.18 0.16 0.09 0.03 0.01 0.01 0.00 0.00 0.00 0.00 0.00 0.00 0.00 0.00 0.00 0.00 0.00 0.00 0.00 0.00 0.00 0.00 0.00
0.22 0.19 0.17 0.13 0.11 0.08 0.04 0.02 0.02 0.01 0.01 0.02 0.02 0.03 0.04 0.04 0.05 0.07 0.10 0.13 0.15 0.16 0.16 0.12 0.06 0.03 0.02 0.01 0.00 0.00 0.00 0.00 0.00 0.00 0.00 0.00 0.00 0.00 0.00 0.00 0.00 0.00 0.00
0.19 0.17 0.14 0.10 0.07 0.04 0.03 0.02 0.01 0.01 0.01 0.01 0.01 0.02 0.02 0.03 0.05 0.07 0.09 0.14 0.16 0.17 0.17 0.15 0.10 0.08 0.08 0.04 0.02 0.01 0.00 0.00 0.00 0.00 0.00 0.00 0.00 0.00 0.00 0.00 0.00 0.00 0.00
0.17 0.12 0.08 0.06 0.05 0.03 0.01 0.01 0.01 0.00 0.00 0.00 0.01 0.01 0.01 0.03 0.07 0.09 0.11 0.13 0.16 0.17 0.14 0.18 0.12 0.09 0.12 0.10 0.08 0.03 0.01 0.00 0.00 0.00 0.00 0.00 0.00 0.00 0.00 0.00 0.00 0.00 0.00
0.12 0.09 0.08 0.05 0.03 0.02 0.01 0.01 0.01 0.00 0.00 0.00 0.00 0.01 0.01 0.03 0.06 0.09 0.12 0.12 0.14 0.15 0.14 0.17 0.17 0.12 0.12 0.16 0.21 0.16 0.07 0.03 0.02 0.03 0.03 0.01 0.00 0.00 0.00 0.00 0.00 0.00 0.00
0.09 0.07 0.09 0.06 0.03 0.01 0.00 0.00 0.00 0.00 0.00 0.00 0.00 0.00 0.01 0.02 0.04 0.07 0.10 0.12 0.13 0.15 0.17 0.14 0.15 0.15 0.14 0.14 0.17 0.16 0.13 0.11 0.07 0.07 0.11 0.07 0.02 0.00 0.00 0.00 0.00 0.00 0.00
0.09 0.09 0.10 0.07 0.04 0.02 0.01 0.01 0.01 0.01 0.01 0.00 0.00 0.00 0.00 0.01 0.02 0.04 0.06 0.09 0.11 0.14 0.17 0.16 0.16 0.16 0.15 0.14 0.14 0.16 0.17 0.17 0.15 0.12 0.11 0.09 0.06 0.02 0.01 0.01 0.00 0.00 0.00
0.11 0.11 0.10 0.09 0.10 0.08 0.09 0.10 0.05 0.02 0.01 0.01 0.01 0.00 0.00 0.01 0.01 0.01 0.02 0.04 0.07 0.11 0.14 0.15 0.16 0.18 0.17 0.14 0.11 0.13 0.15 0.19 0.21 0.19 0.18 0.13 0.10 0.06 0.05 0.04 0.03 0.02 0.01
0.12 0.13 0.13 0.15 0.18 0.17 0.25 0.20 0.09 0.03 0.02 0.02 0.02 0.01 0.01 0.01 0.01 0.01 0.00 0.01 0.02 0.04 0.08 0.12 0.14 0.17 0.18 0.16 0.13 0.11 0.11 0.11 0.12 0.15 0.18 0.21 0.24 0.20 0.19 0.17 0.16 0.16 0.09
0.08 0.08 0.08 0.09 0.13 0.16 0.16 0.08 0.03 0.02 0.03 0.03 0.03 0.03 0.03 0.02 0.02 0.01 0.02 0.02 0.02 0.02 0.02 0.03 0.08 0.11 0.11 0.11 0.11 0.10 0.09 0.10 0.12 0.13 0.14 0.17 0.23 0.25 0.26 0.22 0.17 0.15 0.11
0.02 0.02 0.02 0.03 0.04 0.05 0.05 0.03 0.01 0.02 0.06 0.05 0.03 0.02 0.04 0.04 0.06 0.06 0.03 0.04 0.05 0.04 0.04 0.02 0.04 0.07 0.06 0.05 0.06 0.06 0.08 0.08 0.09 0.09 0.08 0.10 0.13 0.15 0.15 0.14 0.11 0.08 0.06
0.01 0.00 0.01 0.01 0.01 0.01 0.01 0.01 0.01 0.05 0.09 0.08 0.05 0.05 0.06 0.09 0.18 0.12 0.03 0.05 0.07 0.07 0.06 0.04 0.02 0.01 0.01 0.01 0.02 0.03 0.04 0.04 0.05 0.06 0.06 0.07 0.08 0.08 0.07 0.07 0.06 0.05 0.04
0.00 0.00 0.00 0.00 0.00 0.00 0.00 0.00 0.01 0.06 0.08 0.10 0.09 0.10 0.15 0.12 0.17 0.10 0.02 0.07 0.13 0.12 0.07 0.06 0.05 0.04 0.03 0.02 0.01 0.03 0.06 0.07 0.07 0.07 0.05 0.04 0.05 0.05 0.05 0.04 0.03 0.02 0.01
MSLP
1013.65 1013.81 1013.99 1014.20 1014.42 1014.64 1014.83 1014.96 1015.00 1014.96 1014.86 1014.73 1014.63 1014.61 1014.70 1014.92 1015.26 1015.68 1016.12 1016.53 1016.85 1017.05 1017.14 1017.15 1017.11 1017.07 1017.06 1017.10 1017.20 1017.33 1017.47 1017.59 1017.69 1017.77 1017.85 1017.94 1018.07 1018.24 1018.43 1018.62 1018.78 1018.89 1018.92
1013.14 1013.28 1013.46 1013.71 1014.00 1014.30 1014.57 1014.78 1014.91 1014.93 1014.87 1014.77 1014.68 1014.66 1014.75 1014.96 1015.27 1015.67 1016.08 1016.46 1016.76 1016.97 1017.09 1017.13 1017.14 1017.16 1017.20 1017.28 1017.39 1017.52 1017.64 1017.73 1017.80 1017.85 1017.91 1017.99 1018.12 1018.28 1018.46 1018.64 1018.78 1018.86 1018.88
1012.70 1012.82 1013.02 1013.31 1013.67 1014.06 1014.43 1014.75 1014.96 1015.06 1015.07 1015.01 1014.94 1014.92 1014.98 1015.14 1015.39 1015.70 1016.04 1016.35 1016.61 1016.79 1016.92 1017.00 1017.07 1017.15 1017.26 1017.39 1017.54 1017.68 1017.78 1017.86 1017.90 1017.92 1017.96 1018.03 1018.15 1018.30 1018.48 1018.64 1018.76 1018.82 1018.83
1012.35 1012.47 1012.70 1013.04 1013.46 1013.94 1014.41 1014.83 1015.14 1015.33 1015.41 1015.40 1015.36 1015.33 1015.34 1015.43 1015.58 1015.79 1016.01 1016.22 1016.39 1016.54 1016.65 1016.76 1016.89 1017.04 1017.22 1017.41 1017.60 1017.76 1017.88 1017.94 1017.96 1017.97 1018.00 1018.06 1018.16 1018.31 1018.47 1018.62 1018.72 1018.77 1018.77
1012.10 1012.25 1012.52 1012.90 1013.38 1013.93 1014.48 1014.97 1015.37 1015.65 1015.80 1015.85 1015.83 1015.80 1015.78 1015.79 1015.84 1015.92 1016.00 1016.09 1016.17 1016.24 1016.33 1016.45 1016.62 1016.83 1017.08 1017.34 1017.57 1017.77 1017.90 1017.97 1017.99 1017.99 1018.01 1018.06 1018.16 1018.30 1018.45 1018.58 1018.67 1018.71 1018.70
1011.96 1012.15 1012.46 1012.87 1013.39 1013.97 1014.57 1015.12 1015.57 1015.91 1016.13 1016.24 1016.27 1016.25 1016.21 1016.16 1016.12 1016.08 1016.04 1016.01 1015.98 1015.98 1016.03 1016.14 1016.33 1016.58 1016.88 1017.19 1017.47 1017.70 1017.85 1017.94 1017.97 1017.98 1018.00 1018.05 1018.15 1018.28 1018.42 1018.53 1018.60 1018.63 1018.62
1011.90 1012.15 1012.49 1012.93 1013.45 1014.03 1014.62 1015.18 1015.67 1016.05 1016.32 1016.49 1016.57 1016.58 1016.55 1016.49 1016.39 1016.27 1016.14 1016.00 1015.88 1015.81 1015.81 1015.90 1016.08 1016.36 1016.68 1017.02 1017.34 1017.59 1017.77 1017.87 1017.92 1017.94 1017.98 1018.04 1018.14 1018.27 1018.39 1018.49 1018.55 1018.56 1018.54
1011.92 1012.23 1012.59 1013.02 1013.51 1014.05 1014.60 1015.13 1015.60 1016.00 1016.31 1016.53 1016.68 1016.76 1016.77 1016.73 1016.63 1016.48 1016.29 1016.08 1015.90 1015.76 1015.71 1015.77 1015.94 1016.21 1016.54 1016.88 1017.21 1017.47 1017.67 1017.79 1017.86 1017.91 1017.96 1018.04 1018.15 1018.28 1018.39 1018.48 1018.51 1018.50 1018.47
1012.01 1012.36 1012.72 1013.12 1013.55 1014.02 1014.49 1014.95 1015.38 1015.77 1016.10 1016.37 1016.59 1016.75 1016.84 1016.86 1016.80 1016.67 1016.47 1016.25 1016.03 1015.85 1015.77 1015.79 1015.92 1016.16 1016.46 1016.79 1017.11 1017.37 1017.57 1017.70 1017.80 1017.87 1017.96 1018.06 1018.19 1018.32 1018.43 1018.50 1018.52 1018.49 1018.44
1012.16 1012.53 1012.87 1013.21 1013.56 1013.92 1014.29 1014.66 1015.03 1015.38 1015.72 1016.04 1016.34 1016.58 1016.77 1016.88 1016.89 1016.82 1016.66 1016.45 1016.23 1016.04 1015.93 1015.91 1016.01 1016.20 1016.46 1016.75 1017.03 1017.28 1017.47 1017.62 1017.73 1017.84 1017.96 1018.10 1018.25 1018.39 1018.51 1018.58 1018.58 1018.53 1018.46
1012.36 1012.70 1013.00 1013.27 1013.53 1013.78 1014.04 1014.31 1014.61 1014.92 1015.26 1015.62 1015.97 1016.30 1016.58 1016.79 1016.89 1016.90 1016.80 1016.64 1016.44 1016.26 1016.13 1016.09 1016.14 1016.28 1016.49 1016.72 1016.96 1017.17 1017.35 1017.50 1017.64 1017.78 1017.94 1018.12 1018.30 1018.48 1018.61 1018.68 1018.68 1018.62 1018.53
1012.56 1012.87 1013.11 1013.30 1013.47 1013.62 1013.77 1013.96 1014.18 1014.46 1014.79 1015.16 1015.56 1015.95 1016.31 1016.60 1016.80 1016.88 1016.85 1016.75 1016.59 1016.43 1016.30 1016.24 1016.25 1016.34 1016.49 1016.67 1016.85 1017.03 1017.19 1017.34 1017.49 1017.66 1017.87 1018.09 1018.32 1018.54 1018.70 1018.79 1018.80 1018.74 1018.65
1012.75 1012.99 1013.17 1013.29 1013.37 1013.44 1013.52 1013.64 1013.81 1014.05 1014.36 1014.74 1015.15 1015.59 1015.99 1016.34 1016.60 1016.74 1016.78 1016.73 1016.62 1016.49 1016.37 1016.30 1016.28 1016.33 1016.42 1016.55 1016.68 1016.82 1016.95 1017.10 1017.26 1017.47 1017.71 1017.98 1018.26 1018.52 1018.73 1018.86 1018.90 1018.85 1018.76
1012.88 1013.05 1013.15 1013.21 1013.24 1013.25 1013.29 1013.37 1013.51 1013.72 1014.01 1014.38 1014.79 1015.23 1015.64 1016.01 1016.30 1016.49 1016.57 1016.57 1016.50 1016.40 1016.31 1016.24 1016.21 1016.22 1016.28 1016.35 1016.44 1016.54 1016.65 1016.78 1016.95 1017.17 1017.45 1017.76 1018.09 1018.40 1018.66 1018.83 1018.91 1018.90 1018.82
1012.93 1013.02 1013.07 1013.08 1013.07 1013.07 1013.09 1013.16 1013.28 1013.48 1013.75 1014.09 1014.48 1014.89 1015.28 1015.64 1015.93 1016.13 1016.24 1016.27 1016.25 1016.19 1016.12 1016.07 1016.04 1016.04 1016.07 1016.10 1016.15 1016.21 1016.29 1016.41 1016.57 1016.80 1017.09 1017.42 1017.79 1018.14 1018.45 1018.68 1018.80 1018.83 1018.78
1012.90 1012.92 1012.91 1012.89 1012.88 1012.88 1012.92 1012.99 1013.12 1013.31 1013.56 1013.86 1014.21 1014.56 1014.92 1015.23 1015.50 1015.70 1015.82 1015.88 1015.90 1015.88 1015.85 1015.83 1015.82 1015.83 1015.84 1015.85 1015.87 1015.90 1015.94 1016.03 1016.17 1016.38 1016.66 1017.00 1017.38 1017.76 1018.10 1018.37 1018.55 1018.62 1018.62
1012.79 1012.75 1012.71 1012.69 1012.69 1012.71 1012.77 1012.87 1013.01 1013.19 1013.42 1013.68 1013.96 1014.26 1014.55 1014.82 1015.05 1015.23 1015.37 1015.46 1015.51 1015.54 1015.57 1015.59 1015.61 1015.63 1015.64 1015.65 1015.65 1015.65 1015.66 1015.71 1015.81 1015.98 1016.23 1016.54 1016.90 1017.28 1017.64 1017.93 1018.15 1018.28 1018.32
1012.67 1012.59 1012.53 1012.51 1012.53 1012.58 1012.67 1012.78 1012.93 1013.10 1013.29 1013.51 1013.73 1013.97 1014.20 1014.41 1014.61 1014.78 1014.93 1015.04 1015.14 1015.23 1015.31 1015.38 1015.44 1015.49 1015.53 1015.54 1015.53 1015.51 1015.49 1015.49 1015.54 1015.66 1015.85 1016.11 1016.42 1016.77 1017.11 1017.41 1017.65 1017.81 1017.90
1012.59 1012.49 1012.42 1012.41 1012.44 1012.51 1012.62 1012.74 1012.88 1013.03 1013.19 1013.35 1013.52 1013.69 1013.86 1014.04 1014.21 1014.38 1014.54 1014.69 1014.83 1014.97 1015.11 1015.23 1015.35 1015.44 1015.50 1015.52 1015.52 1015.49 1015.44 1015.41 1015.41 1015.45 1015.57 1015.75 1015.99 1016.28 1016.58 1016.86 1017.11 1017.29 1017.41
1012.62 1012.51 1012.44 1012.43 1012.47 1012.55 1012.65 1012.76 1012.88 1012.99 1013.10 1013.21 1013.32 1013.44 1013.57 1013.71 1013.87 1014.04 1014.22 1014.40 1014.59 1014.78 1014.97 1015.14 1015.30 1015.43 1015.53 1015.58 1015.59 1015.56 1015.51 1015.45 1015.40 1015.38 1015.42 1015.52 1015.68 1015.88 1016.11 1016.36 1016.58 1016.77 1016.91
1012.81 1012.69 1012.63 1012.61 1012.65 1012.71 1012.79 1012.87 1012.94 1013.01 1013.06 1013.11 1013.17 1013.24 1013.33 1013.46 1013.61 1013.78 1013.98 1014.19 1014.42 1014.64 1014.87 1015.08 1015.28 1015.44 1015.57 1015.66 1015.69 1015.69 1015.64 1015.57 1015.50 1015.44 1015.41 1015.42 1015.49 1015.61 1015.77 1015.95 1016.13 1016.31 1016.45
1013.17 1013.05 1012.99 1012.96 1012.97 1013.01 1013.04 1013.07 1013.09 1013.09 1013.08 1013.07 1013.08 1013.11 1013.18 1013.29 1013.43 1013.62 1013.83 1014.05 1014.30 1014.54 1014.78 1015.01 1015.23 1015.42 1015.58 1015.70 1015.78 1015.80 1015.79 1015.74 1015.66 1015.58 1015.50 1015.46 1015.45 1015.48 1015.56 1015.67 1015.80 1015.94 1016.07
1013.69 1013.58 1013.50 1013.46 1013.44 1013.43 1013.41 1013.37 1013.32 1013.25 1013.18 1013.12 1013.08 1013.07 1013.12 1013.21 1013.35 1013.54 1013.75 1013.98 1014.21 1014.46 1014.69 1014.92 1015.14 1015.34 1015.53 1015.68 1015.80 1015.87 1015.90 1015.89 1015.84 1015.76 1015.67 1015.58 1015.52 1015.48 1015.48 1015.52 1015.59 1015.68 1015.79
1014.33 1014.22 1014.13 1014.07 1014.01 1013.95 1013.87 1013.76 1013.64 1013.50 1013.37 1013.25 1013.17 1013.14 1013.17 1013.25 1013.38 1013.55 1013.75 1013.96 1014.18 1014.40 1014.61 1014.82 1015.02 1015.22 1015.41 1015.58 1015.74 1015.87 1015.95 1015.99 1015.98 1015.94 1015.86 1015.76 1015.66 1015.58 1015.52 1015.49 1015.50 1015.54 1015.60
1015.02 1014.92 1014.82 1014.73 1014.64 1014.52 1014.38 1014.21 1014.03 1013.83 1013.64 1013.48 1013.37 1013.31 1013.32 1013.39 1013.50 1013.66 1013.84 1014.03 1014.21 1014.39 1014.56 1014.73 1014.90 1015.08 1015.26 1015.45 1015.64 1015.81 1015.95 1016.04 1016.09 1016.08 1016.03 1015.95 1015.84 1015.73 1015.63 1015.55 1015.50 1015.48 1015.49
1015.72 1015.62 1015.52 1015.40 1015.27 1015.11 1014.92 1014.70 1014.45 1014.21 1013.98 1013.79 1013.65 1013.57 1013.57 1013.62 1013.73 1013.87 1014.02 1014.18 1014.32 1014.46 1014.58 1014.71 1014.84 1014.99 1015.16 1015.34 1015.54 1015.74 1015.91 1016.06 1016.15 1016.19 1016.18 1016.11 1016.01 1015.89 1015.76 1015.65 1015.55 1015.49 1015.45
Thickness
5782 5782 5780 5777 5775 5774 5772 5771 5772 5773 5772 5770 5768 5767 5765 5764 5763 5759 5755 5754 5754 5754 5754 5754 5754 5754 5754 5754 5754 5753 5753 5752 5752 5751 5751 5751 5750 5751 5751 5751 5752 5752 5753
5782 5781 5779 5777 5776 5775 5772 5772 5772 5771 5769 5768 5765 5763 5762 5762 5760 5758 5754 5753 5752 5752 5752 5752 5751 5751 5751 5751 5751 5751 5750 5750 5749 5749 5748 5748 5748 5748 5748 5748 5749 5749 5750
5780 5778 5776 5774 5773 5773 5771 5770 5771 5770 5767 5764 5762 5761 5760 5759 5758 5757 5755 5752 5749 5748 5748 5747 5747 5747 5747 5747 5747 5747 5747 5746 5745 5745 5745 5745 5745 5745 5745 5745 5746 5747 5747
5779 5777 5774 5772 5771 5770 5769 5766 5766 5763 5761 5760 5759 5758 5758 5756 5756 5756 5755 5753 5749 5746 5744 5743 5743 5742 5742 5742 5741 5741 5741 5741 5741 5741 5741 5741 5741 5741 5741 5742 5742 5743 5744
5778 5775 5771 5769 5768 5766 5764 5762 5760 5758 5756 5755 5755 5755 5755 5754 5753 5754 5754 5752 5749 5746 5742 5740 5739 5738 5737 5736 5735 5735 5735 5735 5735 5735 5735 5736 5736 5737 5737 5738 5739 5740 5741
5774 5772 5768 5764 5763 5760 5757 5755 5754 5753 5751 5750 5751 5751 5751 5751 5751 5750 5750 5749 5748 5746 5741 5738 5735 5733 5732 5731 5730 5729 5729 5730 5730 5730 5730 5731 5731 5732 5733 5734 5735 5736 5737
5768 5767 5763 5759 5756 5752 5750 5749 5747 5744 5743 5745 5741 5739 5743 5746 5746 5747 5745 5744 5743 5743 5739 5736 5733 5729 5727 5726 5725 5724 5723 5724 5724 5724 5725 5726 5726 5727 5728 5729 5731 5732 5734
5762 5760 5757 5752 5749 5746 5743 5742 5740 5735 5735 5737 5733 5726 5723 5727 5736 5742 5741 5738 5737 5737 5735 5734 5731 5728 5725 5721 5720 5718 5718 5718 5719 5719 5720 5720 5722 5723 5723 5725 5726 5728 5729
5757 5754 5751 5747 5743 5740 5737 5736 5734 5731 5727 5729 5731 5724 5715 5712 5720 5729 5734 5734 5731 5730 5730 5729 5728 5726 5724 5720 5716 5713 5712 5712 5713 5713 5714 5715 5716 5717 5718 5720 5721 5723 5724
5749 5747 5744 5741 5738 5735 5733 5731 5732 5729 5725 5722 5724 5726 5724 5721 5712 5711 5721 5727 5727 5725 5724 5724 5722 5721 5720 5717 5712 5708 5707 5706 5707 5708 5709 5709 5711 5712 5713 5715 5716 5717 5718
5741 5739 5736 5734 5732 5730 5728 5727 5727 5726 5723 5721 5719 5719 5719 5718 5716 5707 5703 5709 5716 5719 5720 5719 5717 5714 5713 5711 5708 5704 5702 5702 5702 5702 5703 5704 5705 5707 5708 5709 5710 5711 5712
5731 5730 5727 5726 5724 5724 5723 5722 5722 5721 5720 5719 5717 5716 5713 5710 5707 5705 5699 5698 5701 5708 5713 5713 5711 5709 5707 5706 5704 5700 5699 5698 5697 5697 5698 5698 5700 5701 5702 5703 5704 5705 5707
5720 5721 5719 5717 5717 5717 5717 5717 5716 5715 5715 5714 5713 5712 5711 5709 5706 5702 5697 5694 5694 5698 5704 5706 5706 5704 5703 5701 5699 5696 5695 5694 5693 5693 5693 5693 5694 5696 5697 5698 5699 5700 5701
5711 5711 5711 5709 5709 5709 5709 5710 5709 5709 5710 5710 5709 5708 5706 5705 5703 5700 5695 5690 5685 5687 5691 5695 5700 5700 5698 5697 5696 5693 5692 5691 5690 5689 5689 5689 5690 5691 5692 5693 5694 5695 5696
5701 5702 5701 5700 5700 5700 5700 5701 5700 5702 5703 5703 5703 5702 5700 5700 5698 5696 5694 5690 5683 5677 5679 5687 5691 5694 5694 5693 5693 5690 5690 5689 5688 5686 5686 5686 5686 5687 5687 5688 5689 5690 5690
5693 5693 5694 5694 5694 5694 5693 5693 5693 5695 5696 5696 5696 5695 5695 5694 5693 5691 5690 5688 5685 5680 5676 5682 5685 5688 5689 5688 5687 5687 5687 5687 5686 5685 5684 5684 5684 5684 5684 5684 5684 5685 5685
5685 5685 5687 5688 5688 5688 5688 5687 5687 5689 5689 5690 5691 5690 5690 5690 5687 5687 5686 5684 5682 5680 5675 5677 5681 5683 5683 5682 5683 5683 5684 5685 5684 5683 5683 5683 5682 5682 5681 5681 5681 5681 5681
5680 5681 5682 5684 5686 5687 5688 5686 5684 5685 5684 5684 5686 5686 5686 5686 5684 5683 5681 5680 5679 5678 5675 5673 5675 5677 5678 5679 5678 5678 5680 5682 5682 5682 5682 5681 5681 5680 5679 5679 5678 5678 5678
5676 5678 5680 5681 5683 5686 5686 5686 5684 5683 5683 5683 5683 5682 5682 5682 5680 5679 5678 5677 5676 5675 5674 5672 5672 5673 5674 5675 5674 5675 5676 5678 5679 5681 5681 5680 5679 5679 5678 5678 5677 5676 5676
5675 5677 5679 5680 5683 5684 5684 5683 5683 5682 5681 5681 5681 5680 5679 5678 5675 5675 5674 5672 5672 5670 5670 5668 5668 5668 5668 5669 5669 5668 5669 5672 5675 5677 5678 5678 5678 5677 5677 5677 5676 5675 5675
5674 5675 5677 5678 5678 5677 5674 5673 5674 5676 5676 5676 5677 5677 5675 5673 5671 5670 5668 5666 5665 5664 5664 5663 5663 5663 5663 5662 5663 5665 5664 5666 5668 5671 5672 5674 5675 5675 5674 5674 5674 5674 5674
5667 5668 5669 5668 5666 5664 5663 5663 5664 5666 5668 5669 5670 5671 5670 5669 5667 5665 5664 5662 5661 5660 5658 5658 5658 5658 5658 5660 5660 5660 5660 5659 5660 5666 5667 5669 5671 5670 5671 5671 5672 5672 5672
5657 5657 5656 5656 5654 5652 5654 5654 5655 5656 5659 5661 5663 5664 5666 5667 5664 5662 5660 5659 5658 5658 5657 5655 5655 5655 5655 5656 5657 5656 5656 5656 5656 5659 5660 5660 5664 5663 5665 5666 5667 5668 5667
5647 5645 5645 5645 5643 5642 5643 5645 5647 5650 5652 5654 5656 5658 5659 5659 5658 5656 5655 5655 5655 5655 5654 5653 5653 5652 5652 5653 5653 5652 5652 5652 5653 5654 5654 5652 5654 5656 5658 5659 5659 5660 5659
5639 5637 5635 5635 5634 5633 5633 5635 5638 5642 5644 5647 5649 5650 5650 5648 5649 5649 5649 5649 5649 5649 5649 5649 5648 5647 5647 5647 5647 5647 5646 5644 5644 5645 5646 5645 5646 5647 5649 5650 5651 5650 5649
5632 5630 5627 5626 5624 5623 5623 5625 5627 5631 5632 5635 5639 5640 5640 5640 5640 5641 5642 5642 5641 5643 5644 5643 5643 5642 5642 5642 5641 5641 5640 5638 5637 5637 5639 5638 5638 5638 5638 5641 5642 5641 5641